map of RUH home
Great Circle Mapper logo
RUH - Airport
Location
City:  Riyadh, Saudi Arabia
Name:King Khalid Airport
ICAO / IATA:OERK / RUH

Details
Type:Airport (Aerodrome, Airfield)
Use:Public/Civil, Military, International (customs port of entry)
Latitude:2457'28"N (24.957640)
Longitude:4641'56"E (46.698776)
Datum:WGS 1984
Elevation:2049 ft (625 m)
Variation:2.9E (WMM2015 magnetic declination)
Runways:2
Longest:13796 × 197 ft (4205 × 60 m), paved

Time
Time Zone:UTC+3
Local Time:

Weather
METAR:OERK 221400Z 05005KT 9999 FEW040 BKN080 18/02 Q1018 NOSIG
TAF:OERK 211630Z 2118/2224 03009KT 8000 SCT040 BKN080
BECMG 2206/2208 07012KT

Related Locations
Nearby:
Farthest:GMR: 12272 mi / 19750 km
Mangareva [Totegegie], Gambier Islands, PF

Find:

   beyond  
but within

Other Information
Maps:
NOTAMs:
Links:
Sources:

  
flag of Saudi Arabia   

Sectional Chart

Flight Planning
at skyvector.com

Satellite Image

Google Maps Satellite View

 

Copyright © 2004-2014 Karl L. Swartz. All rights reserved.
The Great Circle Mapper name and logo are trademarks of the Great Circle Mapper.
All other trademarks mentioned herein belong to their respective owners.
Please see credits for attibutions and further copyright information.

  Follow gcmap on Facebook Follow gcmap on Twitter

hCard Microformat

Geo Microformat